TUI2461 LEMH-EGKK

Flight info

Callsign TUI2461
Flight time N/A
Altitude 34000
Route MEROS3D MEROS N853 LUMAS/N0471F400 DCT SOFFY DCT MRM DCT MTL DCT ETREK DCT MADOT DCT MOPEM DCT CACHI DCT AVLON DCT OKRIX DCT BRY DCT CLM DCT KOPOR DCT KESAX DCT KUNAV KUNAV1G
Aircraft B789/H-SDE1E2E3FGHIJ2J3J4J5M1RWXY/LB1D1

Departure

Time 2026-04-11 00:28
Airport Menorca Airport (LEMH)

Arrival

Time N/A
Airport London Gatwick Airport (EGKK)
Time Latitude Longitude Altitude Speed Heading
2026-04-10 23:43 39.86530 4.22403 328 ft 0 kts 97°
2026-04-10 23:57 39.86530 4.22402 300 ft 0 kts 97°
2026-04-11 00:21 39.86530 4.22396 300 ft 3 kts 96°
2026-04-11 00:21 39.86530 4.22362 301 ft 4 kts 71°
2026-04-11 00:22 39.86516 4.22335 302 ft 4 kts 34°
2026-04-11 00:22 39.86492 4.22321 302 ft 4 kts 11°
2026-04-11 00:22 39.86472 4.22317 302 ft 0 kts
2026-04-11 00:24 39.86476 4.22318 300 ft 2 kts
2026-04-11 00:24 39.86494 4.22320 301 ft 4 kts 359°
2026-04-11 00:25 39.86525 4.22296 303 ft 7 kts 308°
2026-04-11 00:25 39.86546 4.22217 303 ft 11 kts 291°
2026-04-11 00:25 39.86617 4.22179 301 ft 13 kts
2026-04-11 00:25 39.86726 4.22198 302 ft 19 kts
2026-04-11 00:26 39.86871 4.22229 303 ft 24 kts
2026-04-11 00:26 39.87042 4.22263 310 ft 25 kts
2026-04-11 00:26 39.87224 4.22301 315 ft 28 kts 11°
2026-04-11 00:26 39.87380 4.22300 315 ft 14 kts 310°
2026-04-11 00:27 39.87393 4.22169 317 ft 16 kts 258°
2026-04-11 00:27 39.87305 4.22081 317 ft 18 kts 191°
2026-04-11 00:27 39.87151 4.22048 318 ft 36 kts 189°
2026-04-11 00:27 39.86598 4.21935 304 ft 125 kts 189°
2026-04-11 00:28 39.85507 4.21700 461 ft 183 kts 190°
2026-04-11 00:28 39.84313 4.21419 1727 ft 167 kts 188°
2026-04-11 00:28 39.83173 4.21408 2781 ft 169 kts 177°
2026-04-11 00:28 39.81922 4.21192 3295 ft 199 kts 198°
2026-04-11 00:29 39.80499 4.20622 3856 ft 231 kts 193°
2026-04-11 00:29 39.78793 4.20210 3999 ft 260 kts 188°
2026-04-11 00:29 39.76984 4.19889 4099 ft 270 kts 187°
2026-04-11 00:29 39.75171 4.20071 5389 ft 266 kts 158°
2026-04-11 00:30 39.73728 4.21583 6517 ft 278 kts 126°
2026-04-11 00:30 39.73041 4.23983 7018 ft 286 kts 91°
2026-04-11 00:30 39.73491 4.26447 7544 ft 286 kts 57°
2026-04-11 00:30 39.74733 4.28457 8067 ft 286 kts 49°
2026-04-11 00:31 39.76000 4.30459 8576 ft 288 kts 44°
2026-04-11 00:31 39.77400 4.32274 9416 ft 287 kts 37°
2026-04-11 00:31 39.78952 4.33868 10546 ft 290 kts 30°
2026-04-11 00:31 39.80718 4.35214 11031 ft 292 kts 21°
2026-04-11 00:32 39.82596 4.36178 11508 ft 291 kts 12°
2026-04-11 00:32 39.84574 4.36744 12022 ft 291 kts
2026-04-11 00:32 39.86589 4.36880 12531 ft 290 kts 354°
2026-04-11 00:32 39.88593 4.36577 13054 ft 290 kts 345°
2026-04-11 00:33 39.90533 4.35841 13488 ft 296 kts 335°
2026-04-11 00:33 39.92425 4.34617 13764 ft 317 kts 326°
2026-04-11 00:33 39.94252 4.32814 14119 ft 339 kts 316°
2026-04-11 00:33 39.96164 4.30980 14962 ft 346 kts 331°
2026-04-11 00:34 39.98435 4.29935 15768 ft 357 kts 348°
2026-04-11 00:34 40.00953 4.29828 16572 ft 368 kts
2026-04-11 00:34 40.03532 4.30161 17323 ft 376 kts
2026-04-11 00:34 40.06154 4.30535 18131 ft 382 kts
2026-04-11 00:35 40.08822 4.30922 18830 ft 389 kts
2026-04-11 00:35 40.11531 4.31295 19518 ft 394 kts
2026-04-11 00:35 40.14278 4.31668 20196 ft 399 kts
2026-04-11 00:35 40.17057 4.32054 20855 ft 405 kts
2026-04-11 00:36 40.19877 4.32450 21515 ft 410 kts
2026-04-11 00:36 40.22730 4.32848 22146 ft 415 kts
2026-04-11 00:36 40.25622 4.33248 22755 ft 420 kts
2026-04-11 00:36 40.28544 4.33655 23352 ft 425 kts
2026-04-11 00:37 40.31499 4.34068 23881 ft 430 kts
2026-04-11 00:37 40.34483 4.34485 24404 ft 433 kts
2026-04-11 00:37 40.37489 4.34905 24907 ft 436 kts
2026-04-11 00:37 40.40515 4.35328 25412 ft 439 kts
2026-04-11 00:38 40.43547 4.35752 25899 ft 442 kts
2026-04-11 00:38 40.46624 4.36184 26507 ft 438 kts
2026-04-11 00:38 40.49593 4.36606 27650 ft 425 kts
2026-04-11 00:38 40.52518 4.37266 28031 ft 432 kts
2026-04-11 00:39 40.55526 4.37987 28021 ft 446 kts
2026-04-11 00:39 40.58614 4.38707 28126 ft 457 kts
2026-04-11 00:39 40.60692 4.39200 28460 ft 457 kts
2026-04-11 00:39 40.64866 4.40211 29070 ft 458 kts
2026-04-11 00:40 40.68041 4.40976 29045 ft 468 kts
2026-04-11 00:40 40.71246 4.41737 29164 ft 468 kts
2026-04-11 00:40 40.74471 4.42509 29513 ft 471 kts
2026-04-11 00:40 40.77720 4.43293 29626 ft 477 kts
2026-04-11 00:41 40.79923 4.43825 29720 ft 476 kts
2026-04-11 00:41 40.83186 4.44610 30098 ft 477 kts
2026-04-11 00:41 40.86460 4.45397 30439 ft 480 kts
2026-04-11 00:41 40.89749 4.46190 30787 ft 480 kts
2026-04-11 00:42 40.93008 4.46979 30904 ft 485 kts
2026-04-11 00:42 40.96340 4.47788 31175 ft 487 kts
2026-04-11 00:42 40.99677 4.48598 31467 ft 489 kts
2026-04-11 00:42 41.03016 4.49408 31695 ft 492 kts
2026-04-11 00:43 41.06410 4.50233 31881 ft 494 kts
2026-04-11 00:43 41.09792 4.51056 32200 ft 495 kts
2026-04-11 00:43 41.13192 4.51884 32442 ft 497 kts
2026-04-11 00:43 41.16594 4.52713 32915 ft 493 kts
2026-04-11 00:44 41.19968 4.53536 33144 ft 497 kts
2026-04-11 00:44 41.23377 4.54368 33406 ft 497 kts
2026-04-11 00:44 41.26781 4.55200 33643 ft 499 kts
2026-04-11 00:44 41.30198 4.56036 33950 ft 499 kts
2026-04-11 00:45 41.33618 4.56874 34137 ft 501 kts
2026-04-11 00:45 41.37052 4.57716 34340 ft 502 kts
2026-04-11 00:45 41.40479 4.58558 34590 ft 502 kts
2026-04-11 00:45 41.43923 4.59404 34742 ft 504 kts
2026-04-11 00:46 41.47380 4.60254 34939 ft 505 kts
2026-04-11 00:46 41.50847 4.61108 35109 ft 506 kts
2026-04-11 00:46 41.54314 4.61963 35270 ft 508 kts
2026-04-11 00:46 41.57792 4.62821 35421 ft 509 kts
2026-04-11 00:47 41.61280 4.63683 35572 ft 510 kts
2026-04-11 00:47 41.64774 4.64547 35721 ft 511 kts
2026-04-11 00:47 41.68275 4.65414 35869 ft 513 kts
2026-04-11 00:47 41.71781 4.66283 36035 ft 513 kts
2026-04-11 00:48 41.75263 4.67394 36130 ft 515 kts 15°
2026-04-11 00:48 41.78703 4.68753 36248 ft 516 kts 15°
2026-04-11 00:48 41.82154 4.70136 36295 ft 518 kts 15°
2026-04-11 00:49 41.89017 4.72808 36296 ft 514 kts 15°
2026-04-11 00:49 41.95890 4.75520 36287 ft 515 kts 15°
2026-04-11 00:50 42.02761 4.78224 36284 ft 514 kts 15°
2026-04-11 00:50 42.09632 4.80939 36283 ft 515 kts 15°
2026-04-11 00:51 42.16507 4.83662 36284 ft 515 kts 15°
2026-04-11 00:51 42.23382 4.86389 36282 ft 515 kts 15°
2026-04-11 00:52 42.30268 4.89128 36297 ft 515 kts 15°
2026-04-11 00:52 42.33643 4.90472 37016 ft 503 kts 16°
2026-04-11 00:52 42.36982 4.91805 37667 ft 493 kts 16°
2026-04-11 00:52 42.40241 4.93106 38335 ft 483 kts 16°
2026-04-11 00:53 42.43434 4.94382 38936 ft 474 kts 15°
2026-04-11 00:53 42.46570 4.95637 39483 ft 465 kts 15°
2026-04-11 00:53 42.49603 4.96853 39946 ft 458 kts 15°
2026-04-11 00:54 42.55781 4.99328 39974 ft 467 kts 15°
2026-04-11 00:54 42.62075 5.01860 39978 ft 476 kts 15°
2026-04-11 00:55 42.68488 5.04442 39990 ft 485 kts 15°
2026-04-11 00:55 42.75006 5.07074 39995 ft 492 kts 15°
2026-04-11 00:56 42.81617 5.09749 39995 ft 499 kts 15°
2026-04-11 00:56 42.88315 5.12465 39994 ft 505 kts 15°
2026-04-11 00:57 42.95100 5.15223 39990 ft 511 kts 15°
2026-04-11 00:57 43.01946 5.18012 39996 ft 516 kts 16°
2026-04-11 00:58 43.08829 5.20813 39995 ft 509 kts 15°
2026-04-11 00:58 43.12181 5.22178 39983 ft 495 kts 15°
2026-04-11 00:58 43.15457 5.23516 39978 ft 489 kts 15°
2026-04-11 00:59 43.22006 5.26190 39983 ft 495 kts 16°
2026-04-11 00:59 43.28607 5.28895 39990 ft 500 kts 16°
2026-04-11 01:00 43.35319 5.31276 40021 ft 494 kts
2026-04-11 01:00 43.38747 5.31384 40020 ft 492 kts 353°
2026-04-11 01:00 43.42115 5.30598 40021 ft 491 kts 342°
2026-04-11 01:01 43.48628 5.27699 39999 ft 492 kts 340°
2026-04-11 01:01 43.55114 5.24716 40001 ft 489 kts 340°
2026-04-11 01:02 43.61563 5.21774 40001 ft 488 kts 340°
2026-04-11 01:02 43.68013 5.18808 40004 ft 489 kts 340°
2026-04-11 01:03 43.74469 5.15842 39994 ft 488 kts 340°
2026-04-11 01:03 43.80891 5.12880 39991 ft 486 kts 340°
2026-04-11 01:04 43.87271 5.09933 39996 ft 487 kts 340°
2026-04-11 01:04 43.93734 5.06940 39998 ft 487 kts 340°
2026-04-11 01:05 44.00116 5.03977 39995 ft 486 kts 340°
2026-04-11 01:05 44.06521 5.00998 39992 ft 485 kts 340°
2026-04-11 01:06 44.12915 4.98017 40005 ft 485 kts 340°
2026-04-11 01:06 44.19314 4.95026 40003 ft 485 kts 340°
2026-04-11 01:07 44.25741 4.92015 40002 ft 489 kts 340°
2026-04-11 01:07 44.32198 4.88985 39988 ft 488 kts 340°
2026-04-11 01:08 44.38619 4.85963 39981 ft 486 kts 340°
2026-04-11 01:08 44.45033 4.82937 39984 ft 486 kts 340°
2026-04-11 01:09 44.54654 4.78401 39992 ft 485 kts 342°
2026-04-11 01:09 44.61303 4.76696 39992 ft 487 kts 349°
2026-04-11 01:10 44.67975 4.75232 39997 ft 489 kts 349°
2026-04-11 01:10 44.74696 4.73734 39998 ft 488 kts 349°
2026-04-11 01:11 44.81397 4.72248 40004 ft 487 kts 349°
2026-04-11 01:11 44.88090 4.70754 40001 ft 487 kts 349°
2026-04-11 01:12 44.94786 4.69259 40000 ft 487 kts 349°
2026-04-11 01:12 45.01481 4.67759 40003 ft 486 kts 349°
2026-04-11 01:13 45.08163 4.66260 39995 ft 486 kts 349°
2026-04-11 01:13 45.14842 4.64757 40004 ft 487 kts 349°
2026-04-11 01:14 45.21537 4.63245 40004 ft 488 kts 349°
2026-04-11 01:14 45.28255 4.61706 40002 ft 489 kts 349°
2026-04-11 01:15 45.34981 4.60171 39997 ft 489 kts 348°
2026-04-11 01:15 45.41696 4.58629 39999 ft 489 kts 348°
2026-04-11 01:16 45.48416 4.57085 40001 ft 489 kts 348°
2026-04-11 01:16 45.55080 4.55550 39996 ft 487 kts 348°
2026-04-11 01:17 45.61769 4.54004 40003 ft 487 kts 348°
2026-04-11 01:17 45.68467 4.52454 39998 ft 488 kts 348°
2026-04-11 01:18 45.75161 4.50900 39988 ft 486 kts 348°
2026-04-11 01:18 45.81826 4.49350 39985 ft 485 kts 348°
2026-04-11 01:19 45.88499 4.47793 40001 ft 486 kts 348°
2026-04-11 01:19 45.95160 4.46237 39992 ft 483 kts 347°
2026-04-11 01:20 46.01803 4.44678 39991 ft 484 kts 347°
2026-04-11 01:20 46.08456 4.43117 39999 ft 485 kts 347°
2026-04-11 01:21 46.15105 4.41551 39989 ft 483 kts 347°
2026-04-11 01:21 46.21738 4.39985 39989 ft 483 kts 347°
2026-04-11 01:22 46.28381 4.38395 39991 ft 483 kts 344°
2026-04-11 01:22 46.34904 4.36119 39990 ft 482 kts 343°
2026-04-11 01:23 46.41420 4.33856 39984 ft 481 kts 342°
2026-04-11 01:23 46.47929 4.31555 39983 ft 482 kts 343°
2026-04-11 01:24 46.54403 4.29285 39981 ft 481 kts 342°
2026-04-11 01:24 46.60890 4.26989 39979 ft 480 kts 342°
2026-04-11 01:25 46.67381 4.24695 39981 ft 480 kts 342°
2026-04-11 01:25 46.73881 4.22386 39977 ft 481 kts 342°
2026-04-11 01:26 46.80404 4.20068 39984 ft 483 kts 342°
2026-04-11 01:26 46.86930 4.17741 39986 ft 482 kts 342°
2026-04-11 01:27 46.92347 4.15806 39979 ft 481 kts 342°
2026-04-11 01:27 46.98830 4.13482 39978 ft 479 kts 342°
2026-04-11 01:28 47.05307 4.11156 39978 ft 479 kts 341°
2026-04-11 01:28 47.11509 4.07806 39984 ft 475 kts 334°
2026-04-11 01:29 47.17666 4.04185 39974 ft 478 kts 334°
2026-04-11 01:29 47.23842 4.00521 39969 ft 477 kts 334°
2026-04-11 01:30 47.29923 3.96922 38507 ft 477 kts 333°
2026-04-11 01:30 47.33083 3.95024 36721 ft 498 kts 333°
2026-04-11 01:30 47.36224 3.93166 36759 ft 477 kts 333°
2026-04-11 01:31 47.39246 3.91385 36764 ft 458 kts 333°
2026-04-11 01:31 47.42180 3.89623 36789 ft 455 kts 332°
2026-04-11 01:31 47.45102 3.87856 37138 ft 454 kts 332°
2026-04-11 01:31 47.48036 3.86103 37342 ft 455 kts 333°
2026-04-11 01:32 47.50974 3.84355 37550 ft 456 kts 333°
2026-04-11 01:32 47.53924 3.82587 37783 ft 457 kts 332°
2026-04-11 01:32 47.56866 3.80815 38055 ft 457 kts 332°
2026-04-11 01:32 47.59814 3.79040 38224 ft 458 kts 332°
2026-04-11 01:33 47.62771 3.77264 38408 ft 459 kts 332°
2026-04-11 01:33 47.65733 3.75483 38561 ft 460 kts 332°
2026-04-11 01:33 47.68699 3.73693 38709 ft 460 kts 332°
2026-04-11 01:33 47.71632 3.71920 38813 ft 462 kts 332°
2026-04-11 01:34 47.74653 3.70095 38951 ft 463 kts 332°
2026-04-11 01:34 47.77635 3.68292 39097 ft 464 kts 332°
2026-04-11 01:34 47.83590 3.64678 39298 ft 466 kts 332°
2026-04-11 01:35 47.86596 3.62852 39408 ft 467 kts 332°
2026-04-11 01:35 47.89616 3.61016 39512 ft 469 kts 332°
2026-04-11 01:35 47.95702 3.57306 39707 ft 471 kts 332°
2026-04-11 01:36 47.98697 3.55477 39834 ft 471 kts 332°
2026-04-11 01:36 48.01727 3.53615 39934 ft 472 kts 332°
2026-04-11 01:36 48.07842 3.49850 39942 ft 476 kts 332°
2026-04-11 01:37 48.13949 3.46091 39938 ft 473 kts 332°
2026-04-11 01:37 48.20025 3.42332 39945 ft 471 kts 332°
2026-04-11 01:38 48.26102 3.38564 39947 ft 475 kts 332°
2026-04-11 01:38 48.32229 3.34760 39945 ft 476 kts 332°
2026-04-11 01:39 48.38351 3.30947 39947 ft 476 kts 332°
2026-04-11 01:39 48.44446 3.27116 39933 ft 474 kts 330°
2026-04-11 01:40 48.50512 3.23216 39934 ft 473 kts 331°
2026-04-11 01:40 48.56578 3.19357 39935 ft 473 kts 330°
2026-04-11 01:41 48.62626 3.15469 39944 ft 473 kts 330°
2026-04-11 01:41 48.68674 3.11587 39936 ft 472 kts 330°
2026-04-11 01:42 48.74725 3.07684 39934 ft 473 kts 330°
2026-04-11 01:42 48.80789 3.03768 39934 ft 475 kts 330°
2026-04-11 01:43 48.86733 2.99393 39937 ft 474 kts 323°
2026-04-11 01:43 48.92455 2.94421 39930 ft 480 kts 324°
2026-04-11 01:44 48.98278 2.89315 39931 ft 484 kts 324°